[[{"header":{"parameterUnit":"m.s-1","parameterCategory":1,"la1":30.2991,"la2":30.254,"lo1":-89.0895,"lo2":-89.0444,"dy":0.0017,"dx":0.0017,"nx":28,"ny":28,"refTime":"2024-03-18T03:00:00:Z","depth":0,"parameterNumber":2,"parameterNumberName":"U-component_of_WINDS"},"data":[0,0,0,0,0,0,0,0,0,0,0,0,0,0,0,0,0,0,0,0,0,0,0,0,0,0,0,0,0,0,0,0,0,0,0,0,0,0,0,0,0,0,0,0,0,0,0,0,0,0,0,0,0,0,0,0,0,0,0.583,0.5829,0,0.5785,0.5785,0.5784,0.5761,0.5761,0.5761,0.5761,0.5713,0.5711,0.571,0,0,0,0,0,0,0,0,0,0,0,0,0,0.5892,0.5891,0.583,0.5829,0.5829,0.5785,0.5785,0.5784,0.5761,0.5761,0.5761,0.5761,0.5713,0.5712,0.571,0,0,0,0,0,0,0,0,0,0,0,0,0,0.5858,0.5891,0.583,0.5812,0.581,0.5786,0.5785,0.5784,0.5761,0.5761,0.5761,0.5761,0.5714,0.5712,0.571,0.5699,0,0,0.5704,0.5703,0,0,0,0,0,0,0,0,0.586,0.5856,0.5815,0.5813,0.5811,0.5779,0.5789,0.5755,0.5761,0.578,0.5761,0.5761,0.5735,0.5731,0.5723,0.5697,0.5695,0.5704,0.5703,0.5702,0.5701,0,0,0,0,0,0,0,0.5863,0.5858,0.5812,0.5815,0.5812,0.5805,0.5801,0.5783,0.5758,0.5778,0.5776,0.5771,0.5733,0.5724,0.5721,0.5694,0.5704,0.5702,0.5701,0.57,0.5657,0.5657,0,0,0,0,0,0,0.5868,0.586,0.5814,0.5811,0.5836,0.5804,0.5799,0.5789,0.5758,0.5753,0.5771,0.577,0.5728,0.5723,0.5719,0.5705,0.5702,0.57,0.5699,0.5657,0.5657,0.5657,0,0,0,0,0,0,0.587,0.5864,0.5815,0.5835,0.5828,0.5803,0.5792,0.5788,0.5779,0.5753,0.5748,0.5767,0.5727,0.5722,0.5705,0.5703,0.5699,0.5698,0.5657,0.5657,0.5657,0.5675,0,0,0,0,0,0,0.5872,0.5865,0.5861,0.5835,0.5827,0.5802,0.5792,0.5787,0.5776,0.5775,0.5748,0.5743,0.5727,0.5708,0.5703,0.57,0.5696,0.5657,0.5657,0.5657,0.5675,0.5676,0.5677,0,0,0,0,0,0.5874,0.5867,0.5861,0.5856,0.5822,0.5802,0.5797,0.578,0.5776,0.5772,0.5755,0.5744,0.5704,0.5706,0.57,0.5697,0.5657,0.5657,0.5657,0.5674,0.5676,0.5677,0,0,0,0,0,0,0.5893,0.5863,0.5856,0.5841,0.5824,0.5798,0.5792,0.5782,0.5765,0.5764,0.5742,0.5736,0.572,0.5707,0.571,0.5685,0.568,0.5678,0.5694,0.5696,0.5697,0.57,0.5695,0,0,0,0,0,0.5895,0.5882,0.5857,0.5846,0.5838,0.5817,0.5807,0.5795,0.5776,0.5769,0.5751,0.5732,0.5716,0.5705,0.5688,0.5673,0.5667,0.5668,0.5669,0.567,0.5669,0.566,0.5661,0.5657,0.5657,0.5657,0,0,0.59,0.5882,0.5875,0.5849,0.5835,0.5821,0.5811,0.5796,0.5786,0.5766,0.5749,0.5735,0.5713,0.5697,0.5689,0.5685,0.5669,0.567,0.5671,0.567,0.566,0.5661,0.5661,0.5657,0.5657,0.5657,0,0,0.5902,0.5887,0.5877,0.5863,0.5841,0.5827,0.5825,0.58,0.5791,0.5773,0.5758,0.5745,0.5717,0.5702,0.569,0.5687,0.5676,0.5683,0.5688,0.568,0.568,0.568,0.5679,0.5678,0.5682,0.5682,0.5682,0,0.591,0.5889,0.5872,0.5859,0.5848,0.5831,0.582,0.5807,0.5781,0.5773,0.577,0.5735,0.5719,0.5699,0.5698,0.569,0.5686,0.5685,0.5681,0.5681,0.5681,0.568,0.5679,0.5683,0.5683,0.5682,0.5682,0,0.5901,0.5887,0.5881,0.5857,0.5845,0.5833,0.5814,0.5804,0.5793,0.5779,0.5762,0.5742,0.5721,0.5715,0.5704,0.5694,0.5693,0.5686,0.5679,0.5683,0.5681,0.568,0.5684,0.5684,0.5683,0.5683,0,0,0.5912,0.588,0.5878,0.5867,0.5843,0.5831,0.5818,0.5799,0.5791,0.5774,0.5762,0.5739,0.5733,0.572,0.5707,0.57,0.5699,0.5694,0.5693,0.5695,0.5686,0.5691,0.569,0.5692,0.5691,0.5691,0.5687,0,0.591,0.5887,0.5871,0.5854,0.5841,0.5825,0.5814,0.5797,0.5784,0.577,0.5755,0.574,0.5732,0.5725,0.5717,0.57,0.5696,0.57,0.568,0.5679,0.5685,0.569,0.5695,0.5692,0.5687,0.5687,0.5686,0,0.5904,0.5889,0.587,0.5848,0.5842,0.5832,0.5813,0.5801,0.5781,0.5772,0.5759,0.5746,0.5731,0.5727,0.5706,0.5709,0.57,0.5691,0.569,0.5687,0.5683,0.5686,0.5691,0.569,0.5685,0.5685,0.5685,0,0.5914,0.5888,0.5874,0.5866,0.5839,0.5833,0.5821,0.5802,0.5792,0.5775,0.5768,0.5749,0.5739,0.5725,0.5707,0.5706,0.5688,0.5682,0.5679,0.568,0.5676,0.5676,0.5679,0.5671,0.5671,0.5671,0.5671,0,0.5913,0.5902,0.5878,0.587,0.5857,0.584,0.5827,0.5814,0.5798,0.5786,0.5771,0.576,0.5738,0.5724,0.571,0.5695,0.569,0.5682,0.5678,0.5683,0.5684,0.5676,0.5675,0.5671,0.5671,0.5671,0.5671,0,0.5921,0.5905,0.5889,0.5866,0.5859,0.5851,0.5831,0.5822,0.5808,0.5793,0.5788,0.5767,0.575,0.5731,0.5707,0.5698,0.5684,0.5679,0.569,0.5688,0.5686,0.5686,0.5683,0.5682,0.5675,0.5676,0.5676,0,0.5922,0.5913,0.589,0.5881,0.587,0.5857,0.5846,0.5828,0.5818,0.5796,0.5789,0.5771,0.5756,0.5729,0.5711,0.5693,0.5687,0.5687,0.5684,0.5689,0.5686,0.5687,0.5686,0.5688,0.5688,0.5688,0.5688,0,0.5924,0.5916,0.5902,0.5886,0.5874,0.5859,0.5844,0.5838,0.5817,0.5806,0.5789,0.5777,0.5754,0.5736,0.5716,0.5703,0.5692,0.569,0.5688,0.5692,0.5699,0.5695,0.5692,0.5689,0.5689,0.5689,0.5689,0.5689,0.5928,0.592,0.5902,0.5887,0.5874,0.5861,0.5851,0.5837,0.5822,0.5802,0.5793,0.5776,0.5757,0.5729,0.5717,0.5703,0.5699,0.5697,0.5696,0.5695,0.5697,0.5702,0.5699,0.5699,0.5699,0.5699,0.5699,0,0.5929,0.5917,0.5903,0.5883,0.5871,0.5864,0.5847,0.5837,0.5822,0.5806,0.5792,0.5772,0.5755,0.5736,0.5717,0.571,0.5704,0.5706,0.5706,0.5703,0.5701,0.5704,0.571,0.571,0.571,0.571,0.571,0.571,0.5928,0.5914,0.5905,0.5884,0.5872,0.5856,0.5847,0.5834,0.5821,0.58,0.5786,0.5775,0.5757,0.5737,0.5721,0.5716,0.5709,0.5712,0.5705,0.5704,0.5703,0.5702,0.5705,0.5711,0.5711,0.5708,0.5708,0.5708]},{"header":{"parameterUnit":"m.s-1","parameterCategory":1,"la1":30.2991,"la2":30.254,"lo1":-89.0895,"lo2":-89.0444,"dy":0.0017,"dx":0.0017,"nx":28,"ny":28,"refTime":"2024-03-18T03:00:00:Z","depth":0,"parameterNumber":3,"parameterNumberName":"V-component_of_WINDS"},"data":[0,0,0,0,0,0,0,0,0,0,0,0,0,0,0,0,0,0,0,0,0,0,0,0,0,0,0,0,0,0,0,0,0,0,0,0,0,0,0,0,0,0,0,0,0,0,0,0,0,0,0,0,0,0,0,0,0,0,-6.0039,-6.004,0,-6.013,-6.0131,-6.0132,-6.0094,-6.0092,-6.009,-6.0088,-6.0175,-6.0179,-6.0184,0,0,0,0,0,0,0,0,0,0,0,0,0,-5.983,-5.9834,-6.0039,-6.004,-6.0041,-6.0129,-6.0131,-6.0132,-6.0095,-6.0092,-6.009,-6.0087,-6.0174,-6.0179,-6.0184,0,0,0,0,0,0,0,0,0,0,0,0,0,-5.9921,-5.9836,-6.0039,-6.0033,-6.0034,-6.0129,-6.0131,-6.0132,-6.0095,-6.0092,-6.0089,-6.0086,-6.0172,-6.0178,-6.0185,-6.0289,0,0,-6.0205,-6.0207,0,0,0,0,0,0,0,0,-5.9916,-5.9929,-6.0033,-6.0034,-6.0035,-6.0098,-6.0089,-6.0185,-6.0096,-6.0072,-6.0088,-6.0084,-6.0152,-6.016,-6.0183,-6.0293,-6.0297,-6.0205,-6.0209,-6.0212,-6.0214,0,0,0,0,0,0,0,-5.991,-5.9924,-6.0075,-6.0035,-6.0036,-6.0026,-6.0035,-6.0107,-6.0128,-6.0074,-6.0071,-6.0083,-6.0151,-6.0177,-6.0185,-6.0298,-6.0205,-6.0211,-6.0215,-6.0217,-6.0501,-6.0504,0,0,0,0,0,0,-5.9904,-5.9919,-6.0072,-6.0077,-5.9966,-6.0032,-6.0042,-6.008,-6.0128,-6.0132,-6.0085,-6.0081,-6.0168,-6.0178,-6.0188,-6.0315,-6.0212,-6.0218,-6.0222,-6.0497,-6.0501,-6.0505,0,0,0,0,0,0,-5.9899,-5.9918,-6.0068,-5.9998,-6.0016,-6.0039,-6.0082,-6.0084,-6.011,-6.0137,-6.014,-6.0108,-6.0166,-6.0179,-6.0265,-6.0318,-6.0221,-6.0227,-6.0493,-6.0498,-6.0503,-6.0569,0,0,0,0,0,0,-5.9894,-5.9916,-5.9957,-5.9999,-6.002,-6.0145,-6.0085,-6.0088,-6.0122,-6.0117,-6.0159,-6.0163,-6.0164,-6.0256,-6.0272,-6.0325,-6.0232,-6.0488,-6.0495,-6.0502,-6.0563,-6.0576,-6.0588,0,0,0,0,0,-5.9886,-5.997,-5.9959,-5.9978,-6.0071,-6.0148,-6.016,-6.0162,-6.0126,-6.0167,-6.0184,-6.0161,-6.0309,-6.0265,-6.0282,-6.0338,-6.0485,-6.0493,-6.0501,-6.0557,-6.0574,-6.0588,0,0,0,0,0,0,-5.993,-5.9975,-5.9964,-6.0063,-6.0103,-6.0142,-6.0193,-6.0179,-6.0227,-6.022,-6.0218,-6.0228,-6.0318,-6.0336,-6.0286,-6.0443,-6.0392,-6.0404,-6.0428,-6.0444,-6.0457,-6.0451,-6.0237,0,0,0,0,0,-5.9952,-6.0012,-6.0047,-6.0132,-6.0152,-6.017,-6.0203,-6.0201,-6.0241,-6.0256,-6.028,-6.0318,-6.0373,-6.0409,-6.0462,-6.0565,-6.0574,-6.0612,-6.0625,-6.0636,-6.0646,-6.0705,-6.0722,-6.0532,-6.0532,-6.0532,0,0,-5.9996,-6.0028,-6.0066,-6.0142,-6.0172,-6.0233,-6.0183,-6.0249,-6.0295,-6.0266,-6.035,-6.0369,-6.0411,-6.0507,-6.0551,-6.0525,-6.0701,-6.0646,-6.0654,-6.0659,-6.0715,-6.0733,-6.0749,-6.0538,-6.0537,-6.0536,0,0,-6.0109,-6.0139,-6.0215,-6.0247,-6.0294,-6.0306,-6.0324,-6.0366,-6.0379,-6.0464,-6.0444,-6.0497,-6.0592,-6.0624,-6.0652,-6.0781,-6.0763,-6.0798,-6.0865,-6.0922,-6.0937,-6.0951,-6.0998,-6.1015,-6.0808,-6.0809,-6.0809,0,-6.0158,-6.0252,-6.0254,-6.0324,-6.0359,-6.0338,-6.0414,-6.0445,-6.0506,-6.053,-6.0501,-6.0622,-6.0649,-6.0754,-6.0786,-6.0809,-6.083,-6.0793,-6.0935,-6.0949,-6.0961,-6.1006,-6.1024,-6.0813,-6.0812,-6.0812,-6.0812,0,-6.031,-6.0376,-6.0431,-6.0494,-6.0535,-6.0607,-6.062,-6.0661,-6.0657,-6.0671,-6.0759,-6.0791,-6.085,-6.0875,-6.0869,-6.098,-6.0963,-6.0935,-6.0883,-6.0983,-6.1026,-6.1043,-6.0819,-6.0817,-6.0816,-6.0815,0,0,-6.0451,-6.0519,-6.0539,-6.0569,-6.0621,-6.0671,-6.0743,-6.0804,-6.084,-6.0883,-6.0944,-6.1026,-6.1002,-6.1034,-6.1033,-6.1083,-6.1186,-6.1049,-6.105,-6.1075,-6.1311,-6.1333,-6.1353,-6.1174,-6.1177,-6.118,-6.1308,0,-6.057,-6.0699,-6.0705,-6.0822,-6.0883,-6.0866,-6.0929,-6.0968,-6.0984,-6.1037,-6.1053,-6.1113,-6.1075,-6.1095,-6.1144,-6.1163,-6.1233,-6.1154,-6.123,-6.1233,-6.1221,-6.1375,-6.1397,-6.1517,-6.1325,-6.1327,-6.1329,0,-6.0725,-6.0777,-6.0902,-6.0948,-6.0974,-6.1031,-6.1089,-6.114,-6.1184,-6.1192,-6.1231,-6.1223,-6.1297,-6.1243,-6.1344,-6.129,-6.1322,-6.1336,-6.1341,-6.1348,-6.1288,-6.1388,-6.1555,-6.1574,-6.1356,-6.1353,-6.1352,0,-6.0818,-6.0919,-6.1007,-6.1033,-6.1089,-6.113,-6.1155,-6.1196,-6.1233,-6.1283,-6.1308,-6.1364,-6.1396,-6.144,-6.1448,-6.1407,-6.155,-6.1496,-6.1559,-6.1559,-6.159,-6.1588,-6.1766,-6.1609,-6.1609,-6.1608,-6.1608,0,-6.0951,-6.1027,-6.1051,-6.1105,-6.1191,-6.1197,-6.1282,-6.1303,-6.1341,-6.1399,-6.1386,-6.144,-6.1446,-6.1502,-6.1508,-6.1593,-6.1606,-6.1615,-6.1616,-6.1617,-6.1616,-6.1638,-6.163,-6.1613,-6.1612,-6.1611,-6.161,0,-6.1069,-6.1087,-6.1183,-6.123,-6.1243,-6.1305,-6.1344,-6.1396,-6.1412,-6.1486,-6.1503,-6.1527,-6.1593,-6.1605,-6.1681,-6.1685,-6.1787,-6.1778,-6.1773,-6.1772,-6.1835,-6.183,-6.2034,-6.2062,-6.1885,-6.1887,-6.1888,0,-6.1152,-6.1212,-6.1267,-6.1306,-6.1334,-6.1397,-6.1436,-6.1445,-6.1486,-6.1543,-6.1588,-6.1653,-6.1705,-6.181,-6.1834,-6.1892,-6.1886,-6.1954,-6.1895,-6.1895,-6.1889,-6.1886,-6.1893,-6.1965,-6.1967,-6.1969,-6.197,0,-6.13,-6.1307,-6.1365,-6.1428,-6.1476,-6.1525,-6.1571,-6.1604,-6.1619,-6.1665,-6.1734,-6.1775,-6.1855,-6.192,-6.1979,-6.2003,-6.199,-6.1989,-6.2007,-6.2009,-6.2004,-6.2009,-6.1805,-6.1984,-6.1982,-6.1981,-6.1981,-6.198,-6.1404,-6.1458,-6.1506,-6.1572,-6.1609,-6.1653,-6.1706,-6.1729,-6.1788,-6.1855,-6.1856,-6.1932,-6.1976,-6.2055,-6.2083,-6.2142,-6.212,-6.2145,-6.2152,-6.2159,-6.2166,-6.1994,-6.2152,-6.2152,-6.2151,-6.2151,-6.2151,0,-6.1552,-6.1584,-6.1645,-6.1712,-6.1764,-6.175,-6.1801,-6.1845,-6.1913,-6.1956,-6.2009,-6.2089,-6.2153,-6.2182,-6.2245,-6.2286,-6.2282,-6.2302,-6.23,-6.2306,-6.218,-6.2159,-6.2305,-6.2305,-6.2305,-6.2305,-6.2305,-6.2305,-6.1636,-6.1726,-6.174,-6.1849,-6.1878,-6.1955,-6.1986,-6.2027,-6.2062,-6.2153,-6.2207,-6.2227,-6.2265,-6.2331,-6.2389,-6.2395,-6.242,-6.2444,-6.2448,-6.233,-6.2314,-6.2299,-6.228,-6.2449,-6.2449,-6.2569,-6.257,-6.2571]}]]